Showing default

GONETS D1 9, 27060

Orbit data source: Space-Track

GONETS D1 9, 27060 is a payload satellite owned by Gonets (CIS) in LEO that was launched on Fri, 28 Dec 2001 UTC via a TSIKLON-3 launch vehicle from the Plesetsk Missile And Space Complex (PKMTR). Payload-class satellites include a variety of spacecraft equipped with specific instruments for various scientific and technological missions. These include communications satellites like Starlink; space stations such as the ISS; scientific satellites like the Hubble; Earth observation satellites from companies like Planet Labs, Umbra, and HawkEye 360; GPS; miniature CubeSats for education and research; and military/defense satellites.

Loading next visibility...
Identifier
27060, 2001-058F
Orbit
LEO
Country
Flag of CISCIS
Related business
Manufacturer
NPO PM
Mission
Non-operational Civil Communications
Bus & Motor
STRELA-3, Unknown motor
Mass
225 kg wet, 225 kg dry
Launch date (UTC)
2001-12-28 (24 years ago)
Launch vehicle
TSIKLON-3
Launch site
Plesetsk Missile And Space Complex (PKMTR)
Object type
Payload
Rocket body
Debris
Shape & HBR
Cyl + 1 Ant, 3.5 m
Radar Cross Section
1.798 m², Medium (>0.1 m² and < 1m²)

Expand to show TLE details & history
Last TLE update: 9 hours ago

TLE from 9 hours ago
0 GONETS D1 9
1 27060U 01058F   25342.86971884  .00000037  00000-0  14789-3 0  9998
2 27060  82.5398 318.2632 0008953  24.7474 335.4045 12.63057704103801
Epoch: 2025-12-08T20:52Z
TLE epoch observation values (Epoch: 2025-12-08T20:52:23.707Z)
Latitude
-0.00006°
Longitude
-72.69814°
Altitude
1,406.739 km
Speed
7.16 km/s
True Right ascension
21h 13m 03s
True Declination
0° 00' 00"
Sunlit
Object was in daylight at epoch
Visualization orbit readout
Latitude
Unknown
Longitude
Unknown
Altitude
Unknown
Speed
Unknown
Apparent Right ascension
Unknown
Apparent Declination
Unknown
Sunlit
N/A
Visualization observer readout
Local Sidereal Time
04:01:10
Azimuth
Unknown
Elevation
Unknown
Doppler factor
Unknown
Orbital elements
Apogee altitude
1,414.641 km
Perigee altitude
1,400.7 km
Semi-major axis
7,785.807 km
Eccentricity
0.0009
Inclination
82.5398°
RAAN
318.2632°
Arg. of periapsis
24.7474°
True anomaly
335.36176°
Mean anomaly
335.4045°
Eccentric anomaly
335.38313°
Mean motion
3.15928 °/min
Orbital period
113.95 mins
BSTAR
0.00014789
Loading maneuver chart data...
Computing Atmospheric mass density...
Loading historical data...
Loading historical data...
Loading historical data...
Loading historical data...
Loading historical data...
Loading historical data...
Loading historical data...

Documentation

Showing up to 5 results
|